User: anonymous   Login
Location: Arcizac
(43.0933°N, 0.0112°E)
Time: 00:35:29
(UTC+00:00)
Language:

Envisat - Orbit

View from above orbital plane
View from above orbital plane
View from above satellite
View from above satellite

Ground track
Ground track

The orbit data is extracted from the following two-line orbital elements,

1 27386U 02009A   20047.53645966  .00000014  00000-0  17946-4 0  9990
2 27386  98.1400  60.9765 0001183  93.3815  78.8757 14.37971526941095
Epoch (UTC): 16 February 2020 12:52:30
Eccentricity: 0.0001183
inclination: 98.1400°
perigee height: 764 km
apogee height: 766 km
right ascension of ascending node: 60.9765°
argument of perigee: 93.3815°
revolutions per day: 14.37971526
mean anomaly at epoch: 78.8757°
orbit number at epoch: 94109

The dashed part of the orbit path shows where the satellite is in the earth's shadow,  

DLR